#timestamp,LO_Frequency,Hit,StdDev 
1687453215.2,286047000.5,N
1687453235.1,286047000.2,N
1687453236.0,286047000.2,N
1687453255.8,286047000.6,Y
1687453275.6,286047000.9,P
1687453295.5,286047000.5,N
1687453315.3,286047000.4,N
1687453335.2,286046999.8,N
1687453355.9,286046999.9,N
1687453375.7,286047000.1,N
1687453395.6,286047000.4,N
1687453415.4,286047000.6,N
1687453435.2,286047000.9,N
1687453455.1,286046999.7,N
1687453456.0,286046999.7,N
1687453475.8,286047000.3,N
1687453495.7,286047000.5,N
1687453515.5,286046999.9,N
1687453535.3,286046999.8,N
1687453555.2,286047000.4,N
1687453575.9,286047000.2,N
1687453595.7,286047002.8,Y
1687453615.6,286047000.6,P
1687453635.4,286047001.0,P
1687453655.3,286046999.9,N
1687453675.1,286047000.3,N
1687453676.0,286047000.3,N
1687453695.8,286047000.6,N
1687453715.7,286047001.0,N
1687453735.5,286047001.0,N
1687453755.3,286047000.9,N
1687453775.2,286047001.1,N
1687453795.0,286047001.0,N
1687453795.9,286047001.0,N
1687453815.8,286047001.0,N
1687453835.6,286047000.6,N
1687453855.4,286046998.1,Y
1687453875.3,286046998.2,P
1687453895.1,286047001.0,N
1687453915.8,286047000.9,N
1687453935.7,286047000.5,N
1687453955.5,286047000.8,N
1687453975.4,286046998.1,N
1687453995.2,286047000.4,N
1687454015.0,286047000.1,N
1687454015.9,286047000.1,N
1687454035.8,286047002.8,N
1687454055.6,286047001.5,N
1687454075.5,286047001.9,N
1687454095.3,286047004.3,Y
1687454115.1,286047002.2,P
1687454135.9,286047001.7,N
1687454155.7,286047002.3,P
1687454175.6,286047002.0,N
1687454195.4,286047003.0,Y
1687454215.2,286047000.8,P
1687454235.1,286047000.8,N
1687454236.0,286047000.8,N
1687454255.8,286046998.2,Y
1687454275.7,286046998.9,P
1687454295.5,286046999.2,N
1687454315.3,286046996.9,P
1687454335.2,286047000.6,N
1687454355.0,286046998.3,N
1687454355.9,286046998.3,N
1687454375.7,286046996.6,N
1687454395.6,286046994.9,Y
1687454415.4,286046997.5,P
1687454435.3,286046998.0,P
1687454455.1,286046999.5,N
1687454475.8,286046999.9,N
1687454495.7,286046998.6,N
1687454515.5,286046998.8,N
1687454535.4,286046997.6,Y
1687454555.2,286046996.7,P
1687454575.0,286046998.8,N
1687454575.9,286046998.8,N
1687454595.8,286046999.6,N
1687454615.6,286046998.2,N
1687454635.5,286046997.6,N
1687454655.3,286046995.2,Y
1687454675.1,286046998.6,P
1687454695.9,286046999.1,P
1687454715.7,286046995.0,P
1687454735.5,286046995.6,N
1687454755.4,286046996.3,N
1687454775.2,286046993.6,Y
1687454795.1,286046996.9,P
1687454796.0,286046996.9,P
1687454815.8,286047000.8,P
1687454835.6,286047002.0,N
1687454855.5,286047001.8,N
1687454875.3,286046998.3,N
1687454895.2,286046999.4,N
1687454915.9,286046999.6,N
1687454935.7,286046997.2,N
1687454955.6,286046996.9,N
1687454975.4,286046998.7,N
1687454995.3,286046999.6,N
1687455015.1,286046999.0,N
1687455016.0,286046999.0,N
1687455035.8,286046994.9,Y
1687455055.7,286046996.9,P
1687455075.5,286046997.5,N
1687455095.3,286046997.4,P
1687455115.2,286046999.6,N
1687455135.0,286046999.6,N
1687455135.9,286046999.6,N
1687455155.8,286046998.5,N
1687455175.6,286046996.9,Y
1687455195.4,286046998.4,P
1687455215.3,286046999.3,P
1687455235.1,286046999.9,N
1687455255.9,286047000.2,N
1687455275.7,286047000.8,N
1687455295.5,286047001.2,N
1687455315.4,286046998.7,N
1687455335.2,286046996.5,Y
1687455355.1,286046999.4,P
1687455356.0,286046999.4,P
1687455375.8,286046996.6,P
1687455395.6,286046998.8,N
1687455415.5,286046998.8,N
1687455435.3,286046998.5,N
1687455455.1,286046998.2,N
1687455475.9,286046996.8,Y
1687455495.7,286047002.8,P
1687455515.6,286047000.9,N
1687455535.4,286047002.3,N
1687455555.2,286047003.1,N
1687455575.1,286047001.8,N
1687455576.0,286047001.8,N
1687455595.8,286047000.3,N
1687455615.6,286047001.3,N
1687455635.5,286047005.6,Y
1687455655.3,286047004.1,P
1687455675.2,286047006.0,P
1687455695.9,286047003.3,N
1687455715.7,286047003.8,N
1687455735.6,286047003.2,N
1687455755.4,286047001.7,N
1687455775.2,286047003.8,N
1687455795.1,286047003.5,N
1687455796.0,286047003.5,N
1687455815.8,286047004.2,Y
1687455835.7,286047001.1,P
1687455855.5,286046998.1,N
1687455875.3,286046998.5,N
1687455895.2,286046996.7,N
1687455915.9,286046996.7,N
1687455935.7,286046997.1,N
1687455955.6,286046996.1,N
1687455975.4,286046996.7,N
1687455995.2,286046997.5,N
1687456015.1,286046996.7,N
1687456016.0,286046996.7,N
1687456035.8,286046999.5,N
1687456055.7,286046996.8,N
1687456075.5,286046996.3,N
1687456095.3,286046996.3,N
1687456115.2,286046998.0,N
1687456135.0,286046996.7,N
1687456135.9,286046996.7,N
1687456155.7,286046999.6,N
1687456175.6,286046997.7,N
1687456195.4,286046995.8,N
1687456215.3,286046995.3,N
1687456235.1,286046999.5,N
1687456255.8,286046997.8,N
1687456275.7,286046997.4,N
1687456295.5,286046995.9,N
1687456315.4,286046996.2,N
1687456335.2,286046995.2,N
1687456355.0,286046995.8,N
1687456355.9,286046995.8,N
1687456375.8,286046997.3,N
1687456395.6,286046995.9,Y
1687456415.5,286046996.7,P
1687456435.3,286046997.7,P
1687456455.1,286046999.0,N
1687456505.9,286046998.4,E
1687456515.8,286047000.4,N
1687456535.7,286047001.3,P
1687456555.5,286047001.6,P
1687456575.3,286047002.8,Y
1687456595.2,286047001.2,P
1687456615.0,286046997.0,P
1687456615.9,286046997.0,N
1687456635.8,286046999.3,N
1687456655.6,286047000.9,N
1687456675.4,286047000.5,N
1687456695.3,286047002.3,N
1687456715.1,286047004.4,N
1687456735.9,286047004.2,N
1687456755.7,286047000.7,N
1687456775.5,286047001.2,N
1687456795.4,286046997.3,N
